Find Starlink 34443

NORAD ID: 64296 Int'l Des: 2025-123 Owner: SPXS Country: US Constellation: starlink operational
LEOCIRCULAR

Aktuelle Ansicht

3D-Globus wird geladen...

Über Starlink 34443

Beschreibung wird geladen...

Nächste Überflüge

Passes for default location (London). Set your location on the main map for personalized predictions.

Höhenverlauf

Loading altitude history...

Zweizeiliger Elementsatz

1 64296U 25123F 26149.63422861 .00003053 00000-0 26347-3 0 9990
2 64296 70.0006 350.3539 0002704 261.2366 98.8486 14.98336909 54968
Epoch: 29. Mai 2026 • Age: 28 hours

Aktueller Status

Höhe 579.3 km
Geschwindigkeit 7.57 km/s
Subsatellitenpunkt 44.66°N, 27.51°W
Startdatum 8. Juni 2025
Alter 0.9 years
Typ internet

Technische Details

Klassifizierung Payload
Masse 575.00 kg
Trockenmasse 530.00 kg
Gesamtmasse 575.00 kg
Länge 0.30 m
Durchmesser 4.10 m
Spannweite 29.00 m
Form Box + pan
Hersteller SPXS
Bus-Typ Starlink V2MO
Phasenstatus In Orbit
Besitzer/Staat SPXS/US

Most Searched